WB5NHL-13 Weather Reports


time (UTC)temp
C
wind
direction
speed
KPH
gust
KPH
rain 1hr
cm
rain 24hr
cm
rain mn
cm
humidity
%
barometer
mb
20260906093022 22 0.0 0.0 0.00 0.08 0.00 99 1010.6
20260906092024 22 0.0 0.0 0.00 0.08 0.00 99 1010.6
20260906091021 22 0.0 0.0 0.00 0.08 0.00 99 1010.5
20260906090018 22 0.0 0.0 0.00 0.08 0.00 99 1010.3
20260906085033 22 0.0 0.0 0.00 0.08 0.00 99 1010.5
20260906084018 22 0.0 0.0 0.00 0.08 0.00 99 1010.4
20260906083021 22 0.0 0.0 0.00 0.08 0.00 99 1010.3
20260906082024 22 0.0 0.0 0.00 0.08 0.00 99 1010.3
20260906081027 22 0.0 0.0 0.00 0.08 0.00 99 1009.9
20260906080030 22 0.0 0.0 0.00 0.08 0.00 99 1010.2
20260906075053 22 0.0 0.0 0.00 0.08 0.00 99 1010.2
20260906074018 22 0.0 0.0 0.00 0.08 0.00 99 1010.2
20260906073020 22 0.0 0.0 0.00 0.08 0.00 99 1010.3
20260906072024 22 0.0 0.0 0.00 0.08 0.00 99 1010.4
20260906071027 22 0.0 0.0 0.00 0.08 0.00 99 1010.4
20260906070029 22 0.0 0.0 0.00 0.08 0.00 99 1010.3
20260906065033 22 0.0 0.0 0.00 0.08 0.00 99 1010.5
20260906064037 22 0.0 0.0 0.00 0.08 0.00 99 1010.6
20260906063020 22 0.0 0.0 0.00 0.08 0.00 99 1010.7
20260906062023 22 0.0 0.0 0.00 0.08 0.00 99 1010.8
20260906061026 22 0.0 0.0 0.00 0.08 0.00 99 1010.6
20260906060043 22 0.0 0.0 0.00 0.08 0.00 99 1010.9
20260906055020 22 0.0 0.0 0.00 0.08 0.00 99 1011.0
20260906054017 22 0.0 0.0 0.00 0.08 0.00 99 1011.0
20260906053019 23 0.0 0.0 0.00 0.08 0.00 99 1011.0
20260906052023 23 0.0 0.0 0.00 0.08 0.00 99 1010.9
20260906051026 23 0.0 0.0 0.00 0.08 0.00 99 1011.2
20260906050029 23 0.0 0.0 0.00 0.08 0.00 99 1011.3
20260906045032 23 0.0 0.0 0.00 0.08 0.00 99 1011.3
20260906044017 23 0.0 0.0 0.00 0.08 0.00 99 1011.3
20260906043040 23 0.0 0.0 0.00 0.08 0.00 99 1011.2
20260906042022 23 0.0 0.0 0.00 0.08 0.00 99 1011.2
20260906041025 23 0.0 0.0 0.00 0.08 0.00 99 1011.3
20260906040028 23 0.0 0.0 0.00 0.08 0.00 99 1011.5
20260906035031 23 0.0 0.0 0.00 0.08 0.08 99 1011.4
20260906034057 23 0.0 0.0 0.00 0.08 0.08 99 1011.5
20260906033019 23 0.0 0.0 0.00 0.08 0.08 99 1011.6
20260906032022 23 0.0 0.0 0.00 0.08 0.08 99 1012.0
20260906031025 23 0.0 0.0 0.00 0.08 0.08 99 1012.1
20260906030028 23 0.0 0.0 0.00 0.08 0.08 99 1012.1
20260906025025 23 0.0 0.0 0.00 0.08 0.08 99 1012.2
20260906024016 23 0.0 0.0 0.00 0.08 0.08 99 1012.3
20260906023019 23 0.0 0.0 0.00 0.08 0.08 99 1012.4
20260906022016 23 0.0 0.0 0.00 0.08 0.08 99 1012.5
20260906021025 23 0.0 0.0 0.00 0.08 0.08 99 1012.2
20260906020048 23 0.0 0.0 0.00 0.08 0.08 99 1012.2
20260906015051 23 0.0 0.0 0.00 0.08 0.08 99 1011.6
20260906014015 23 0.0 0.0 0.00 0.08 0.08 99 1011.3
20260906013019 23 0.0 0.0 0.00 0.08 0.08 99 1011.0
20260906012022 23 0.0 0.0 0.00 0.08 0.08 99 1010.7
20260906011025 23 0.0 0.0 0.00 0.08 0.08 99 1010.2
20260906010028 23 0.0 0.0 0.00 0.08 0.08 99 1009.9
20260906005031 23 0.0 0.0 0.00 0.08 0.08 99 1010.0
20260906004016 23 0.0 0.0 0.00 0.08 0.08 99 1010.0
20260906003039 23 0.0 0.0 0.00 0.08 0.08 99 1010.1
20260906002022 23 0.0 0.0 0.00 0.08 0.08 99 1010.3
20260906001024 24 0.0 0.0 0.00 0.08 0.08 99 1010.5
20260906000047 24 0.0 0.0 0.00 0.08 0.08 98 1010.3
20260905235111 24 0.0 0.0 0.00 0.08 0.08 97 1010.7
20260905234015 25 0.0 0.0 0.05 0.08 0.08 98 1010.9
20260905233018 25 0.0 0.0 0.08 0.08 0.08 97 1011.0
20260905232101 25 0.0 0.0 0.08 0.08 0.08 98 1010.8
20260905231018 26 0.0 0.0 0.08 0.08 0.08 95 1010.1
20260905230027 27 0.0 0.0 0.08 0.08 0.08 89 1010.1
20260905225030 28 0.0 0.0 0.08 0.08 0.08 83 1010.6
20260905224033 30 0.0 0.0 0.03 0.03 0.03 70 1010.7
20260905223023 32 0.0 0.0 0.00 0.00 0.00 67 1010.6
20260905222021 33 0.0 0.0 0.00 0.00 0.00 64 1010.4
20260905221024 35 0.0 0.0 0.00 0.00 0.00 60 1009.1
20260905220027 36 0.0 0.0 0.00 0.00 0.00 57 1009.2
20260905215030 36 0.0 0.0 0.00 0.00 0.00 57 1009.0
20260905214032 36 0.0 0.0 0.00 0.00 0.00 54 1008.8
20260905213018 36 0.0 0.0 0.00 0.00 0.00 54 1008.6
20260905212021 35 0.0 0.0 0.00 0.00 0.00 56 1008.8
20260905211023 35 0.0 0.0 0.00 0.00 0.00 55 1008.9
20260905210027 36 0.0 0.0 0.00 0.00 0.00 52 1008.9
20260905205029 36 0.0 0.0 0.00 0.00 0.00 55 1008.8
20260905204053 36 0.0 0.0 0.00 0.00 0.00 55 1008.9
20260905203017 36 0.0 0.0 0.00 0.00 0.00 54 1008.9
20260905202020 36 0.0 0.0 0.00 0.00 0.00 54 1009.1
20260905201023 36 0.0 0.0 0.00 0.00 0.00 54 1009.0
20260905200020 36 0.0 0.0 0.00 0.00 0.00 56 1009.2
20260905195037 37 0.0 0.0 0.00 0.00 0.00 54 1009.3
20260905194052 37 0.0 0.0 0.00 0.00 0.00 52 1009.5
20260905193022 37 0.0 0.0 0.00 0.00 0.00 53 1009.7
20260905192020 38 0.0 0.0 0.00 0.00 0.00 53 1009.7
20260905191023 37 0.0 0.0 0.00 0.00 0.00 56 1010.1
20260905190046 37 0.0 0.0 0.00 0.00 0.00 53 1010.4
20260905185029 37 0.0 0.0 0.00 0.00 0.00 55 1010.4
20260905184032 37 0.0 0.0 0.00 0.00 0.00 55 1010.4
20260905183017 37 0.0 0.0 0.00 0.00 0.00 57 1010.6
20260905182020 37 0.0 0.0 0.00 0.00 0.00 58 1010.8
20260905181023 36 0.0 0.0 0.00 0.00 0.00 58 1010.8
20260905180026 36 0.0 0.0 0.00 0.00 0.00 60 1011.3
20260905175029 36 0.0 0.0 0.00 0.00 0.00 62 1011.4
20260905174032 35 0.0 0.0 0.00 0.00 0.00 64 1011.4
20260905173017 35 0.0 0.0 0.00 0.00 0.00 66 1011.4
20260905172019 34 0.0 0.0 0.00 0.00 0.00 69 1011.6
20260905171022 33 0.0 0.0 0.00 0.00 0.00 70 1011.8
20260905170025 33 0.0 0.0 0.00 0.00 0.00 74 1011.8
20260905165022 33 0.0 0.0 0.00 0.00 0.00 73 1012.1
20260905164019 32 0.0 0.0 0.00 0.00 0.00 74 1012.3
20260905163016 32 0.0 0.0 0.00 0.00 0.00 75 1012.5
20260905162019 32 0.0 0.0 0.00 0.00 0.00 76 1012.7
20260905161022 32 0.0 0.0 0.00 0.00 0.00 77 1012.8
20260905160025 31 0.0 0.0 0.00 0.00 0.00 78 1013.0
20260905155028 31 0.0 0.0 0.00 0.00 0.00 80 1013.1
20260905154031 31 0.0 0.0 0.00 0.00 0.00 81 1013.2
20260905153016 30 0.0 0.0 0.00 0.00 0.00 82 1013.3
20260905152019 30 0.0 0.0 0.00 0.00 0.00 82 1013.1
20260905151022 30 0.0 0.0 0.00 0.00 0.00 85 1013.2
20260905150025 28 0.0 0.0 0.00 0.00 0.00 89 1013.7
20260905145028 28 0.0 0.0 0.00 0.00 0.00 89 1013.7
20260905144031 28 0.0 0.0 0.00 0.00 0.00 91 1013.7
20260905143036 27 0.0 0.0 0.00 0.00 0.00 92 1013.6
20260905142019 27 0.0 0.0 0.00 0.00 0.00 93 1013.8
20260905141022 27 0.0 0.0 0.00 0.00 0.00 94 1013.9
20260905140025 26 0.0 0.0 0.00 0.00 0.00 99 1014.0
20260905135028 26 0.0 0.0 0.00 0.00 0.00 99 1013.9
20260905134025 26 0.0 0.0 0.00 0.00 0.00 99 1013.9
20260905133036 26 0.0 0.0 0.00 0.00 0.00 99 1014.0
20260905132039 25 0.0 0.0 0.00 0.00 0.00 99 1014.1
20260905131036 25 0.0 0.0 0.00 0.00 0.00 99 1014.3
20260905130024 25 0.0 0.0 0.00 0.00 0.00 99 1014.2
20260905125027 24 0.0 0.0 0.00 0.00 0.00 99 1014.2
20260905124031 24 0.0 0.0 0.00 0.00 0.00 99 1014.1
20260905123056 24 0.0 0.0 0.00 0.00 0.00 99 1013.9
20260905122018 23 0.0 0.0 0.00 0.00 0.00 99 1014.0
20260905121021 23 0.0 0.0 0.00 0.00 0.00 99 1013.7
20260905120024 23 0.0 0.0 0.00 0.00 0.00 99 1013.7
20260905115027 23 0.0 0.0 0.00 0.00 0.00 99 1013.7
20260905114030 23 0.0 0.0 0.00 0.00 0.00 99 1013.6
20260905113033 23 0.0 0.0 0.00 0.00 0.00 99 1013.4
20260905112018 23 0.0 0.0 0.00 0.00 0.00 99 1013.7
20260905111021 23 0.0 0.0 0.00 0.00 0.00 99 1013.7
20260905110024 23 0.0 0.0 0.00 0.00 0.00 99 1013.4
20260905105027 23 0.0 0.0 0.00 0.00 0.00 99 1013.4
20260905104029 23 0.0 0.0 0.00 0.00 0.00 99 1013.4
20260905103026 23 0.0 0.0 0.00 0.00 0.00 99 1013.3
20260905102037 23 0.0 0.0 0.00 0.00 0.00 99 1013.3
20260905101040 23 0.0 0.0 0.00 0.00 0.00 99 1013.2
20260905100017 23 0.0 0.0 0.00 0.00 0.00 99 1013.1
20260905095026 23 0.0 0.0 0.00 0.00 0.00 99 1013.2
20260905094029 24 0.0 0.0 0.00 0.00 0.00 99 1013.2